Hourly Data Report for July 12, 2017

CAPE RACE (AUT)
NEWFOUNDLAND

46°39'36.000" N
53°04'35.000" W
26.50 m
8401000
71800
WRA

Download Data

Hourly Data (July 2017)
Hourly Data Report for July 12, 2017
TIME
LST
Temp Definition
°C
Dew Point Definition
°C
Rel Hum Definition
%
Precip. Amount Definition
mm

Wind Dir Definition
10's deg

Wind Spd Definition
km/h
Visibility Definition
km
Stn Press Definition
kPa
Hmdx Definition


Wind Chill Definition


Weather Definition


00:30 11.0 11.0 100 0.7 21 5   101.26     LegendNANA
01:30 12.3 LegendMM 100 0.0 23 15   101.19     LegendNANA
02:30 12.8 LegendMM 100 0.0 24 21   101.16     LegendNANA
03:30 12.7 LegendMM 100 0.0 26 31   101.19     LegendNANA
04:30 12.3 LegendMM 100 0.0 25 30   101.17     LegendNANA
05:30 10.8 LegendMM 100 0.0 24 30   101.22     LegendNANA
06:30 10.8 LegendMM 100 0.0 24 29   101.21     LegendNANA
07:30 12.1 LegendMM 100 0.0 25 26   101.17     LegendNANA
08:30 11.5 LegendMM 100 0.0 23 21   101.19     LegendNANA
09:30 10.2 LegendMM 100 0.0 22 21   101.12     LegendNANA
10:30 11.3 LegendMM 100 0.0 21 20   101.07     LegendNANA
11:30 11.3 LegendMM 100 0.0 21 24   100.99     LegendNANA
12:30 13.1 LegendMM 100 0.0 22 24   100.93     LegendNANA
13:30 13.3 LegendMM 100 0.8 22 34   100.84     LegendNANA
14:30 12.4 LegendMM 100 0.0 22 36   100.80     LegendNANA
15:30 12.5 LegendMM 100 0.0 23 34   100.80     LegendNANA
16:30 12.7 LegendMM 100 0.0 23 34   100.82     LegendNANA
17:30 13.5 LegendMM 100 0.0 25 34   100.85     LegendNANA
18:30 12.7 LegendMM 100 0.0 25 27   100.90     LegendNANA
19:30 11.8 LegendMM 100 0.0 24 24   100.91     LegendNANA
20:30 9.1 LegendMM 100 0.0 22 20   100.96     LegendNANA
21:30 10.8 LegendMM 100 0.0 24 24   101.00     LegendNANA
22:30 11.1 LegendMM 100 0.0 25 25   100.99     LegendNANA
23:30 10.0 LegendMM 100 0.0 24 19   101.02     LegendNANA

Notes on Data Quality.

Legend

  • E = Estimated
  • M = Missing
  • NA = Not Available*
  • [empty] = Indicates an unobserved value
Date modified: